Wind_Speed
36 35 33 31 31 31 30 28 27 25 24 23 20 17 16 15 12 14 16 14 13 11 19 32 25 23 25 30 37 38 32 29 30 31 32 34 34 32 29 25 21 19 19 18 17 17 17 18 18 19 19 19 18 17 16 16 15 15 14 14 14 15 15 15 16 16 17 17 19 19 18 17 16 16 18 19 20 18 16 14 14 15 16 16 16 17
37 36 35 33 32 32 29 27 28 27 27 27 23 18 13 13 11 11 13 16 12 9 15 29 27 27 31 34 38 38 33 30 31 30 30 32 33 31 28 26 22 21 20 19 19 18 18 19 20 20 20 19 18 17 17 17 16 16 15 15 15 15 15 15 16 16 17 17 18 19 18 18 18 17 18 19 20 20 18 17 17 18 18 17 17 18
40 38 36 34 33 33 30 28 28 28 28 28 28 23 16 15 13 12 14 20 16 11 13 29 33 31 34 37 39 37 33 30 27 25 25 26 28 28 25 23 22 22 21 21 20 19 20 21 22 22 21 19 19 18 18 18 18 17 16 16 15 15 15 15 16 16 17 17 17 18 18 18 18 19 19 18 18 18 19 20 20 20 21 21 20 20
41 38 36 35 34 33 30 28 28 28 29 28 28 28 22 21 19 14 15 22 21 17 18 34 39 36 37 38 37 34 32 28 25 23 22 23 23 23 22 22 24 25 24 22 22 21 22 23 23 23 21 20 19 19 19 19 19 18 17 17 16 16 16 16 16 16 16 17 17 18 19 19 19 20 19 19 18 17 18 20 20 21 22 23 23 22
39 36 34 35 34 33 31 29 29 29 30 29 27 28 26 23 23 14 16 24 26 22 23 31 36 38 38 36 34 32 28 27 26 25 24 23 23 22 22 24 27 28 26 24 23 23 24 24 24 22 21 21 20 20 20 20 19 19 18 17 16 17 17 17 17 16 17 17 17 18 19 20 20 20 20 20 19 18 18 20 20 21 21 22 24 24
39 37 35 36 35 34 33 31 30 30 31 30 28 28 27 23 26 16 18 27 30 27 28 29 31 36 37 35 35 31 26 26 26 26 26 26 27 26 24 25 27 28 26 24 24 24 24 24 23 22 22 22 21 21 20 20 20 18 18 17 17 17 17 17 17 17 18 18 18 19 19 20 21 21 21 21 21 19 19 19 20 21 22 23 24 24
40 39 37 37 36 35 35 33 31 31 32 31 30 29 26 24 30 19 21 27 30 32 30 28 29 34 34 33 34 30 26 27 27 27 27 27 28 28 27 27 26 26 25 24 25 25 25 25 24 23 23 23 22 21 21 20 20 18 18 17 17 17 16 16 16 17 18 19 19 20 21 21 21 22 22 22 22 21 20 21 21 22 24 25 24 24
42 41 39 38 38 37 37 35 32 33 34 31 31 31 26 27 32 19 19 26 28 31 28 23 27 33 33 31 30 29 26 26 26 26 25 25 26 26 28 29 29 28 28 27 27 28 27 26 26 25 24 24 22 21 21 21 20 19 19 18 18 18 17 17 17 18 19 19 20 21 22 22 22 22 23 23 23 22 22 22 22 22 23 25 26 25
42 41 40 39 38 38 37 35 33 33 33 31 31 31 26 30 32 21 20 29 29 29 27 26 29 31 32 31 29 28 26 24 24 22 22 23 25 25 27 29 31 32 33 32 31 30 29 28 27 26 24 24 23 23 22 21 20 20 20 19 19 19 19 19 19 20 20 21 22 22 23 23 23 23 23 23 23 23 23 23 23 23 23 24 26 27
41 40 39 39 38 38 36 34 34 33 34 32 31 30 29 33 33 24 23 29 30 30 31 33 34 32 32 33 32 30 28 27 27 26 26 26 26 27 27 28 30 32 33 33 32 32 30 28 28 26 24 24 24 24 22 21 21 21 21 20 20 20 20 21 21 22 22 22 23 23 23 23 24 24 24 24 24 24 24 23 23 23 23 24 25 26
40 38 38 39 39 37 35 34 34 34 34 33 30 32 33 35 35 29 25 25 28 32 34 34 35 35 35 38 37 34 30 29 30 32 32 30 29 29 29 29 29 29 30 30 30 31 30 28 27 26 25 25 25 24 23 22 22 22 21 20 20 21 21 21 22 23 23 24 24 25 24 24 24 25 25 25 25 25 24 24 24 24 24 24 24 25
40 39 39 39 38 38 36 35 35 34 35 34 31 34 36 36 37 35 29 27 30 34 34 32 33 35 37 39 37 34 31 29 29 31 31 29 30 31 31 31 31 30 30 28 28 29 29 29 27 26 26 26 26 24 23 23 22 21 21 21 21 21 21 22 22 23 24 25 25 25 25 25 25 25 25 25 25 25 25 25 25 25 25 24 24 25
42 41 39 39 40 40 38 36 36 35 37 37 34 34 37 39 41 39 34 32 34 34 32 30 31 33 33 32 32 31 30 29 26 26 28 28 29 30 30 31 31 32 32 30 28 28 28 29 28 28 28 27 26 24 23 23 22 21 21 21 22 21 22 22 23 24 25 26 26 26 26 26 26 26 26 26 26 26 26 27 27 27 27 26 25 25
43 41 38 39 41 41 38 38 40 39 40 39 36 36 37 42 46 44 38 33 29 27 29 27 24 27 30 30 32 33 30 28 26 26 27 28 29 29 29 29 29 30 31 31 30 29 29 29 30 30 29 27 25 24 24 23 22 22 22 22 22 22 23 23 23 24 25 26 27 26 26 26 27 27 27 27 27 28 28 28 28 28 28 28 27 26
43 42 41 41 41 40 39 39 40 39 41 39 36 37 38 41 46 46 41 35 27 23 27 27 24 27 31 32 34 35 32 29 27 26 26 26 27 28 28 27 27 29 30 31 30 30 29 30 30 30 29 28 26 25 25 24 23 23 22 22 23 23 24 24 24 25 26 27 27 27 27 27 27 28 28 29 29 30 30 29 29 29 29 29 28 28
43 42 41 38 35 36 38 39 38 36 38 38 36 39 41 40 43 47 45 37 28 25 26 28 31 33 33 34 33 32 32 31 29 26 25 26 26 26 26 25 26 28 29 30 30 29 29 29 30 30 30 29 28 27 26 25 24 23 23 23 24 25 25 26 26 26 27 27 27 27 27 28 29 29 30 31 31 32 31 30 30 30 29 29 29 29
42 41 39 36 32 32 34 38 40 38 36 37 38 41 42 38 36 40 45 41 31 26 27 28 34 36 35 37 38 35 33 31 28 26 24 23 24 25 26 26 26 27 29 29 29 28 28 28 29 30 30 29 28 27 27 26 25 24 24 24 25 26 27 27 27 27 27 28 28 28 28 29 31 32 32 33 33 33 33 32 31 30 30 30 30 30
38 36 35 37 35 34 35 35 35 36 37 38 38 39 39 37 32 31 38 43 38 33 32 32 35 37 37 39 42 40 36 32 30 28 25 24 24 26 27 27 28 28 29 29 29 28 28 29 30 30 30 29 29 29 28 27 26 25 25 26 27 28 28 28 28 28 28 29 29 29 30 31 32 33 34 35 35 35 34 34 32 32 32 32 32 31
32 31 31 36 38 36 37 34 30 33 38 39 34 34 39 41 37 34 35 38 40 41 41 41 41 40 39 41 43 42 37 35 34 31 30 29 29 30 30 29 28 29 29 30 29 29 28 28 29 30 31 31 31 30 29 27 26 27 27 28 29 30 30 30 30 30 30 30 31 31 31 32 33 34 35 36 36 36 36 35 34 33 33 33 32 32
28 28 28 31 33 32 34 37 36 35 38 39 33 30 38 43 41 39 38 33 32 36 41 44 45 46 45 45 46 43 40 38 36 33 32 32 32 33 32 31 30 29 29 30 30 30 28 28 29 31 32 33 32 30 29 28 28 29 30 30 31 31 31 31 31 32 32 32 33 33 33 33 34 34 35 36 37 37 36 35 35 34 34 33 33 32
27 25 25 24 26 29 33 37 36 34 36 40 37 31 34 42 43 41 40 35 30 29 33 38 41 42 44 44 43 42 39 37 36 35 33 32 32 33 33 33 32 31 29 29 30 31 30 29 30 31 32 31 30 30 29 30 31 31 32 33 33 33 33 33 33 33 34 34 35 34 34 35 35 36 36 37 37 37 37 36 35 35 34 34 33 33
30 24 25 26 26 29 31 30 28 28 34 39 39 35 33 37 40 42 43 39 35 32 31 32 32 32 34 36 38 38 36 34 34 33 30 30 30 31 32 33 33 32 30 29 30 31 32 31 31 31 30 30 30 30 31 32 33 33 34 35 35 35 35 35 35 36 36 36 36 36 36 36 36 37 37 37 38 38 37 37 36 35 35 35 34 34
32 26 27 31 30 29 27 25 22 24 33 39 38 36 35 35 36 40 44 43 38 35 32 28 26 26 26 29 34 36 34 33 31 29 29 29 29 30 31 32 32 32 31 29 29 30 31 31 30 30 29 29 31 32 33 33 34 35 36 37 37 37 37 37 37 38 38 38 37 37 37 37 37 38 38 38 38 38 38 37 37 36 36 36 35 35
34 30 32 33 33 29 24 22 20 21 31 39 39 37 37 36 33 33 39 41 35 31 30 28 28 29 28 29 31 31 30 30 29 29 30 31 31 31 30 30 30 31 31 31 30 29 29 29 29 29 29 31 32 33 34 35 36 37 38 38 38 38 38 39 40 41 40 39 39 39 38 38 38 38 39 39 38 38 38 37 37 37 37 37 36 36
36 32 35 37 36 33 28 25 23 24 29 37 42 41 39 36 32 28 32 37 33 28 29 31 32 33 33 32 32 29 27 27 28 29 29 30 31 31 29 29 29 29 30 31 31 30 29 28 28 29 31 32 33 34 35 36 37 38 38 39 39 40 40 41 42 42 41 40 40 39 38 38 38 39 39 39 38 38 37 38 38 38 38 38 38 37
37 33 36 40 40 38 36 33 27 23 26 33 40 42 41 39 35 31 30 33 33 32 32 33 36 39 38 36 34 31 29 28 27 28 28 29 30 30 29 28 28 28 29 30 31 31 30 29 29 30 32 33 34 35 36 37 37 38 39 40 41 41 42 42 42 42 41 40 40 39 38 38 38 38 38 38 38 38 38 38 38 39 39 39 39 38
37 35 36 38 39 39 37 31 25 21 20 26 34 41 42 39 36 33 31 31 34 36 36 35 39 43 41 37 34 33 31 30 28 28 28 28 29 30 30 29 29 29 29 29 30 31 31 31 31 31 32 33 35 35 36 37 38 39 40 41 42 42 42 43 43 42 42 41 39 38 38 38 37 37 38 38 38 38 38 39 39 40 40 40 40 40
38 38 36 35 37 38 35 28 25 25 23 22 30 41 44 37 32 32 32 33 36 38 39 40 42 43 39 36 35 35 35 33 31 30 29 28 28 29 30 30 30 30 29 28 29 29 30 31 31 32 33 34 35 36 37 38 39 40 41 42 42 42 43 43 43 42 41 40 39 38 37 37 36 36 37 37 38 38 39 39 40 41 41 41 42 42
37 38 36 35 35 36 34 29 28 29 27 20 21 34 43 37 29 30 33 36 38 38 38 41 42 41 39 37 37 36 35 35 33 32 30 27 25 25 27 28 29 29 28 27 27 29 30 31 31 32 33 34 36 37 38 39 40 40 41 41 42 42 43 43 43 41 40 39 38 37 36 36 35 36 36 37 37 38 39 40 41 42 42 43 43 44
36 38 37 35 35 35 34 32 31 29 29 24 19 27 39 38 32 33 35 39 41 37 36 38 41 41 41 40 39 37 36 35 34 32 30 27 24 22 22 23 25 26 27 26 27 29 30 30 30 31 32 34 36 37 38 39 39 40 41 41 42 42 43 43 41 40 38 37 37 36 36 36 36 37 37 38 38 39 39 40 41 42 43 43 44 44
35 38 40 37 37 38 36 34 32 30 30 30 27 30 38 40 38 37 38 42 44 38 35 38 41 42 42 41 39 37 35 35 34 32 30 28 27 25 23 22 24 25 25 26 28 29 29 28 29 30 33 34 35 36 37 38 39 40 40 41 41 42 41 40 38 37 37 37 37 37 37 38 38 38 39 39 40 40 41 41 42 42 43 44 44 45
35 38 41 40 41 42 39 36 34 32 32 34 33 34 36 39 42 39 38 44 47 43 40 41 41 41 40 39 38 35 32 33 34 33 31 29 26 24 23 23 24 24 24 26 28 28 27 28 29 31 33 34 34 35 37 38 38 39 40 40 39 39 38 37 37 37 38 38 38 38 38 39 39 39 40 40 41 42 42 43 43 44 45 45 45 46
35 37 39 41 42 42 40 37 36 34 35 37 37 35 33 36 42 42 40 43 47 47 44 42 41 40 39 38 38 36 32 31 31 31 29 25 22 21 22 22 22 23 24 26 27 27 27 28 29 30 32 33 34 35 36 37 37 37 37 37 37 37 37 37 38 38 39 39 39 39 40 40 40 40 41 42 42 42 43 44 44 45 46 47 47 48
34 35 38 40 41 40 39 37 36 38 39 39 37 35 33 33 38 43 43 43 44 46 45 44 43 43 41 39 38 37 34 30 26 25 24 21 20 20 20 20 21 22 24 26 26 26 26 28 29 29 31 32 32 33 34 34 35 35 35 36 36 36 37 37 37 38 39 40 40 40 41 41 41 41 42 43 43 43 44 45 46 47 47 48 49 49
30 29 32 36 38 39 39 37 37 40 41 40 38 36 34 33 34 40 44 44 43 42 41 42 43 43 43 41 38 36 31 25 21 20 20 19 19 19 19 19 20 21 24 25 25 26 27 28 29 29 30 31 31 31 31 32 33 34 35 35 35 36 36 37 38 39 39 40 40 40 40 41 41 42 43 43 44 45 46 46 47 48 49 49 50 51
26 24 25 29 33 37 38 37 37 38 39 39 39 37 34 34 34 37 41 43 43 41 39 39 40 41 43 42 36 31 26 20 17 17 17 17 17 17 18 19 20 22 24 25 25 26 27 28 29 29 29 29 29 30 30 32 33 34 35 35 36 37 38 38 39 39 39 39 40 40 40 41 41 42 43 44 45 45 46 47 48 49 50 50 51 52
26 26 26 28 32 36 37 34 33 35 36 36 37 37 35 34 35 37 39 40 38 37 38 38 39 39 41 41 35 27 22 19 17 16 16 16 16 17 18 19 20 22 23 24 25 26 27 27 28 28 29 29 29 30 32 33 34 35 36 36 37 38 38 38 38 38 38 39 40 40 41 41 43 44 44 45 46 46 47 48 49 50 51 51 52 52
27 28 28 29 30 33 34 33 32 32 32 32 34 36 36 35 34 34 37 38 34 30 29 30 30 31 32 32 29 24 21 19 18 16 16 16 16 18 20 21 22 23 24 24 25 25 26 27 28 28 29 30 31 32 33 34 34 35 35 35 36 36 36 36 36 37 38 39 40 41 41 42 43 45 46 46 47 48 49 50 51 52 52 53 54 54
26 27 28 29 29 30 31 30 28 28 28 29 30 31 34 34 30 26 28 32 32 28 24 22 22 22 22 22 22 20 19 18 17 16 17 18 19 20 21 21 23 24 25 25 25 26 26 27 28 29 30 31 32 32 32 33 33 33 33 34 34 35 35 35 36 37 38 39 40 41 42 43 44 45 45 46 47 48 49 50 51 52 52 53 54 55
25 26 27 28 28 29 30 29 27 24 23 24 25 27 29 31 29 25 23 24 25 24 23 21 20 20 20 20 19 19 18 18 18 19 20 21 22 22 22 22 24 25 25 26 26 27 28 29 30 30 31 31 31 31 32 32 33 33 33 33 34 34 34 35 36 37 37 38 39 41 41 41 42 43 43 44 45 47 48 49 50 51 52 53 54 55
24 23 25 27 27 27 27 28 28 26 23 22 23 25 27 29 29 27 24 22 22 23 23 22 21 21 21 21 21 21 21 21 21 22 23 24 24 24 24 25 25 26 27 28 28 29 29 30 30 31 31 31 31 31 32 32 32 32 32 32 32 33 33 34 35 36 36 37 38 39 39 40 41 42 43 44 46 47 48 50 51 52 53 54 55 55
24 24 24 25 26 26 25 26 28 28 25 23 21 21 24 25 24 23 22 23 24 24 25 24 23 23 22 23 23 24 24 24 24 25 26 26 26 26 26 27 27 28 28 29 29 29 29 30 30 30 30 30 31 31 31 30 30 30 30 30 30 31 32 33 33 34 34 35 35 37 38 38 39 40 41 42 43 44 45 46 47 48 49 50 51 52
21 23 24 25 25 25 24 24 25 24 22 20 19 19 21 21 19 18 20 22 23 23 24 24 24 24 24 23 23 24 25 26 26 27 27 26 26 27 27 27 28 28 28 29 29 29 29 29 28 29 29 29 29 29 29 28 28 28 28 29 29 30 30 31 31 31 32 32 33 33 34 34 35 36 37 37 38 38 39 39 40 41 42 43 44 46
19 20 22 24 25 25 23 22 22 20 18 17 16 16 17 17 18 18 20 21 22 23 24 24 24 25 25 24 25 26 26 26 27 27 26 26 26 27 27 27 28 28 28 28 28 28 28 27 27 27 27 27 27 27 26 26 26 26 27 27 27 27 28 28 28 28 28 28 28 29 30 31 31 32 32 33 33 34 34 35 36 36 37 38 38 39
17 19 21 23 25 26 25 23 22 20 19 17 16 15 16 16 18 19 21 22 23 24 24 24 24 25 25 26 26 26 26 26 26 27 26 26 26 27 27 27 27 28 27 27 27 27 26 26 26 25 25 25 25 24 24 24 24 24 25 25 25 25 25 25 24 24 24 25 25 26 27 28 28 28 29 30 31 32 33 34 35 36 37 38 38 38
17 17 19 21 23 25 26 24 21 19 16 15 15 15 15 16 17 18 20 21 22 22 23 23 24 25 25 26 25 25 25 26 26 26 26 26 27 27 27 27 27 26 26 25 25 25 24 24 24 23 23 23 23 22 22 22 22 22 22 22 22 21 20 20 20 21 22 22 23 24 24 25 26 26 27 29 30 32 33 35 36 37 39 40 41 41
19 17 18 19 20 21 22 21 19 17 15 15 15 15 15 16 17 17 18 19 20 21 22 23 24 25 25 25 26 26 26 26 26 27 27 27 27 27 27 26 26 25 24 23 23 23 22 22 22 22 21 21 20 20 20 20 20 20 19 18 18 17 17 18 19 20 20 21 21 22 22 23 25 26 28 29 31 32 33 35 36 37 38 40 42 43
19 18 17 18 18 18 19 20 20 19 18 17 17 17 17 17 17 17 18 20 21 21 22 23 24 24 24 26 26 27 27 27 27 27 27 27 26 26 25 24 24 23 22 22 22 22 21 21 20 20 19 18 18 18 18 18 17 16 15 15 15 16 17 18 18 19 19 20 20 21 22 23 24 26 28 29 31 32 33 34 35 36 37 39 41 43
17 18 18 18 19 19 20 20 20 20 20 19 19 19 19 19 20 20 21 22 22 22 23 23 24 24 25 26 26 26 26 26 26 25 25 24 24 23 23 23 22 21 21 21 21 20 19 19 18 16 16 16 16 16 15 14 13 13 13 14 15 15 16 17 18 18 19 19 19 20 21 23 24 26 27 29 30 31 32 33 34 35 37 38 40 42
17 19 20 20 21 21 21 22 22 21 21 20 20 20 21 21 22 22 23 23 23 23 23 23 24 24 24 24 25 25 24 24 24 23 23 22 22 22 22 21 21 21 20 19 18 17 16 16 15 15 15 15 14 13 12 11 12 12 13 14 14 15 15 16 17 17 18 18 20 20 21 22 24 26 28 29 30 31 32 33 34 36 37 38 40 42
18 18 18 19 19 20 20 21 21 21 20 20 20 21 22 23 23 23 23 23 23 23 23 23 23 23 23 23 23 23 23 22 22 22 22 21 21 21 21 20 20 19 17 16 15 14 14 14 14 14 13 12 11 10 11 11 12 13 13 13 14 14 15 15 16 17 17 18 19 20 21 23 24 26 27 29 31 32 33 34 35 36 37 39 40 42
Wind_Direction
218 220 220 219 218 221 224 222 220 220 220 219 217 221 226 225 225 225 235 230 223 231 177 168 177 189 207 218 219 230 236 228 226 226 231 238 242 245 248 248 245 247 252 250 248 248 248 251 254 259 263 266 270 272 274 274 275 277 281 288 295 300 304 307 304 302 302 302 305 308 310 308 304 301 302 305 307 309 311 314 316 309 306 312 315 319
217 219 219 218 217 220 222 218 216 214 216 217 209 208 210 206 202 192 219 240 237 239 187 174 183 199 211 218 222 233 238 234 233 230 233 241 245 247 249 250 249 250 251 246 246 245 245 247 251 255 259 264 267 269 270 271 272 275 278 284 289 295 300 303 303 301 301 303 304 306 308 307 305 301 297 299 303 309 312 314 314 309 309 313 315 318
218 217 217 216 216 219 220 216 215 213 215 219 213 208 191 176 175 170 213 242 244 259 212 186 193 205 214 221 227 235 238 239 240 237 238 243 247 250 251 252 248 245 245 243 243 242 242 244 247 252 256 262 264 265 267 268 270 272 275 281 286 292 298 300 301 301 300 301 302 304 307 307 305 301 297 295 297 305 309 311 314 314 313 315 316 318
219 218 216 216 217 218 218 215 213 212 215 217 217 215 197 168 159 173 222 238 242 252 219 196 201 210 217 224 229 235 237 239 242 240 240 241 244 246 246 244 241 239 239 240 241 239 238 240 244 250 256 261 262 263 266 266 269 272 275 282 287 290 295 298 299 299 298 298 300 303 306 307 306 302 299 296 295 298 300 304 309 310 310 312 314 314
220 219 217 217 218 218 217 215 212 213 215 215 216 217 206 175 154 174 227 231 234 231 210 205 209 214 223 228 233 237 236 236 238 236 237 238 238 240 240 238 235 236 237 239 240 237 236 238 243 250 255 258 260 262 264 266 268 272 277 282 285 287 291 296 299 299 298 298 299 302 305 306 305 303 301 298 296 295 296 299 303 304 306 308 307 307
217 216 216 217 218 217 217 215 211 213 215 214 213 214 212 183 155 173 225 225 223 211 207 224 223 219 228 231 232 236 232 232 236 237 237 238 239 242 244 242 238 237 238 238 239 238 238 241 245 250 253 255 257 260 263 266 268 271 277 280 281 284 289 295 299 300 300 300 299 300 302 303 303 302 300 297 295 295 295 295 297 301 303 303 305 310
217 215 214 215 217 216 217 214 209 212 214 213 210 208 212 185 159 180 228 227 225 219 225 242 234 227 231 231 231 233 235 237 239 239 239 239 242 246 247 246 244 241 239 240 241 242 244 247 249 251 253 254 255 259 262 265 268 271 274 276 278 281 286 292 295 298 299 298 297 298 299 300 300 300 298 296 295 294 293 292 294 296 298 300 305 312
216 215 213 214 215 215 216 214 208 210 213 213 207 204 209 186 163 174 225 232 234 232 236 239 226 226 230 234 238 237 238 239 236 238 240 242 245 247 247 246 247 247 246 248 250 250 249 250 251 251 252 253 254 257 261 263 266 268 270 271 274 278 282 286 291 293 295 295 294 294 294 296 297 297 296 295 294 292 290 291 292 293 295 298 303 306
216 216 214 213 215 215 216 214 209 211 213 214 208 204 203 186 167 163 203 224 232 232 236 230 219 224 232 238 242 238 234 231 230 237 243 247 248 247 247 247 249 250 251 254 255 253 251 250 250 250 249 251 253 255 258 260 262 264 266 270 274 277 280 284 287 290 293 294 293 291 290 292 294 296 295 294 292 291 290 290 290 291 292 295 300 303
217 218 217 215 216 216 216 215 212 212 214 214 208 200 195 186 176 167 188 216 230 234 239 240 234 235 240 245 245 241 238 235 239 246 250 252 249 247 248 247 250 252 254 256 254 252 251 249 248 248 248 251 254 255 257 257 258 261 265 270 274 278 281 283 286 289 293 295 296 293 290 289 291 294 295 294 292 290 289 288 289 289 290 292 295 299
217 218 220 218 216 216 216 216 214 214 215 215 208 198 193 190 186 181 190 213 229 233 235 241 244 244 246 252 254 248 242 238 240 245 250 252 247 244 246 246 249 254 257 257 254 252 251 248 247 247 248 250 253 255 257 258 259 261 265 270 275 279 282 284 286 289 293 295 297 295 292 289 289 291 293 292 291 289 288 288 288 288 289 291 294 297
215 215 218 219 217 215 215 215 214 215 217 213 208 203 198 193 191 190 193 204 219 227 228 231 238 243 247 253 256 252 242 234 233 236 242 245 244 243 244 245 249 253 257 258 254 252 251 250 248 246 247 249 252 255 257 259 262 264 267 271 275 279 282 284 286 288 292 295 296 296 293 290 289 289 289 289 288 287 288 288 288 288 289 292 295 296
214 214 214 217 219 215 212 214 212 212 217 213 205 204 201 194 193 194 192 200 217 228 231 231 233 238 245 250 253 253 244 236 232 231 235 240 243 244 244 246 250 253 256 258 257 255 252 250 247 245 246 249 252 255 257 259 262 265 268 272 276 280 282 283 285 287 289 293 295 295 293 291 289 289 288 287 286 286 287 288 289 290 292 295 296 296
213 213 212 214 219 217 212 213 212 210 215 214 204 202 201 194 194 196 193 198 216 231 235 234 230 234 243 251 256 256 250 243 238 235 235 239 243 246 247 248 251 253 255 257 258 257 252 248 246 246 247 250 253 255 257 259 261 264 268 272 277 280 282 282 283 285 287 291 293 294 293 291 289 288 287 286 286 287 288 289 291 293 295 297 297 297
214 215 215 215 217 218 215 216 216 212 215 217 206 201 204 199 196 198 196 196 205 219 227 226 225 231 240 248 253 253 251 247 245 243 241 242 247 251 253 254 254 255 255 255 257 256 254 252 249 249 250 252 254 255 257 259 261 264 268 272 277 280 282 283 284 286 287 290 292 294 294 292 290 288 286 286 287 288 289 290 291 293 294 295 296 297
217 218 219 219 217 218 217 217 217 212 216 220 207 202 211 210 203 201 200 198 201 209 217 220 223 227 234 241 245 247 248 246 245 247 247 250 254 256 257 258 257 256 256 258 259 259 258 256 253 253 252 252 253 255 258 260 261 264 269 273 277 280 283 284 285 286 287 289 292 293 294 293 291 288 287 288 289 289 289 290 290 291 292 294 294 295
218 217 217 219 218 217 216 216 217 214 215 218 210 208 217 216 207 203 203 203 204 208 212 211 215 221 227 236 243 244 244 245 247 250 253 257 259 258 259 261 261 259 258 259 259 259 257 253 251 250 249 250 252 255 257 258 260 264 270 274 277 279 282 282 283 285 286 288 289 291 293 293 291 290 289 289 289 289 289 289 289 290 291 291 292 293
219 217 215 218 218 219 221 219 220 220 218 218 216 213 214 210 206 205 206 209 211 214 217 213 214 221 225 232 243 247 247 252 256 257 258 261 263 263 263 264 265 264 262 258 256 255 253 249 246 245 246 249 251 253 256 258 262 267 272 275 276 278 280 281 281 282 284 286 287 289 290 291 291 290 289 289 288 288 287 287 288 288 289 290 291 292
218 215 214 219 220 222 226 222 219 221 219 218 216 210 206 206 208 207 208 213 216 219 223 222 221 224 225 231 241 247 251 257 260 260 260 262 264 265 265 266 266 266 264 259 255 254 252 249 246 245 247 249 251 253 256 259 265 270 273 276 277 278 279 280 280 281 283 286 287 288 288 289 289 288 287 286 286 286 285 286 286 286 287 289 290 291
211 211 211 219 222 223 227 225 220 220 220 216 210 204 205 208 209 209 209 212 217 221 224 226 228 229 231 237 243 246 249 253 255 256 258 260 262 261 261 262 263 263 261 259 255 252 250 248 247 247 247 249 251 254 257 262 267 271 274 277 278 279 280 280 281 282 285 288 289 289 288 289 289 287 285 283 282 282 282 283 283 283 285 286 288 290
202 206 208 214 221 222 225 228 223 216 219 218 207 199 205 211 209 209 210 211 216 223 226 228 232 235 238 241 246 248 250 250 250 252 255 258 259 257 255 256 258 259 257 256 255 252 249 248 248 247 246 248 251 255 259 263 267 271 275 277 279 280 281 282 283 285 287 289 290 289 289 289 289 287 284 282 280 280 280 281 281 281 283 285 286 288
199 198 199 204 217 223 224 229 225 215 218 220 210 200 207 216 213 211 213 215 219 224 228 233 237 241 243 244 245 248 249 249 250 252 254 255 257 254 251 253 256 256 255 254 254 253 251 251 249 247 247 249 253 257 261 264 268 272 275 278 279 280 281 283 284 286 287 288 289 289 289 289 287 286 284 281 280 280 280 280 280 281 283 284 286 287
199 191 188 197 214 225 228 231 228 215 214 217 212 203 207 217 216 214 217 218 219 223 227 234 241 244 245 243 244 245 246 249 251 253 252 252 252 252 251 252 254 255 254 252 251 250 250 250 249 248 248 250 255 258 262 265 269 272 275 277 279 280 282 284 285 287 287 288 288 289 288 288 286 283 282 280 280 280 280 280 280 281 283 284 286 286
199 190 187 197 209 218 226 232 225 210 210 216 214 203 204 214 217 217 218 215 215 219 224 231 239 245 246 246 246 245 246 249 249 248 249 248 249 250 250 250 251 252 252 250 247 246 245 246 246 246 249 252 255 259 262 266 269 272 275 276 278 280 281 283 285 287 287 287 288 289 288 287 285 282 281 280 279 279 279 279 280 281 283 283 284 285
203 193 189 197 203 206 210 214 212 205 206 214 213 202 200 210 215 214 214 213 212 214 221 230 237 242 247 249 251 248 246 247 246 244 247 247 246 246 246 248 249 249 249 247 245 244 243 244 245 247 250 253 256 260 262 266 269 271 273 275 276 278 280 283 285 286 286 287 288 288 288 287 285 282 281 280 279 279 278 279 280 281 282 283 284 285
206 199 195 199 206 212 214 215 218 216 212 216 217 211 208 210 211 207 205 208 211 213 219 227 232 237 241 244 248 249 247 246 244 242 243 243 244 245 246 247 247 247 247 247 245 245 244 244 245 247 251 253 256 260 262 265 267 269 271 273 275 278 280 282 284 284 285 286 287 288 287 285 284 282 281 280 280 279 279 280 281 282 283 283 284 285
205 203 202 204 212 220 223 223 225 227 227 224 223 222 217 209 204 203 204 206 210 215 220 225 228 233 237 240 244 248 249 248 245 241 242 244 245 247 247 247 246 246 247 246 245 245 244 244 245 248 251 253 256 259 261 263 265 267 270 273 276 279 280 282 282 283 285 286 287 286 285 284 283 282 281 281 281 280 280 281 281 282 283 284 284 285
205 205 207 208 214 220 222 221 216 217 223 223 222 222 216 206 203 206 209 210 212 216 221 225 227 231 235 238 241 243 247 250 249 247 248 249 249 249 248 247 245 244 244 243 242 242 242 243 245 247 250 252 255 257 260 262 265 268 271 274 276 278 279 280 281 283 284 286 286 286 285 284 282 281 281 281 282 282 282 282 282 282 283 284 284 285
206 209 209 207 212 218 219 215 208 210 213 212 218 220 214 212 217 218 215 216 216 217 220 225 228 230 233 237 239 242 247 251 253 254 255 255 251 247 245 243 240 239 239 239 240 241 242 244 246 249 251 253 256 259 262 264 267 270 272 274 276 277 278 279 281 283 285 286 287 286 286 285 284 283 282 282 283 283 283 283 283 283 283 283 284 284
203 208 210 204 205 213 216 209 204 207 208 204 206 210 206 208 217 219 216 216 216 217 221 227 230 232 234 237 239 243 248 251 252 255 256 253 246 241 242 240 237 237 239 239 240 242 244 247 250 253 255 256 259 262 265 267 268 270 271 273 274 276 277 279 282 284 286 287 288 288 288 287 287 286 285 285 284 284 284 284 284 284 284 284 284 284
200 204 209 203 201 208 212 207 203 201 200 200 203 205 204 205 210 213 213 212 213 218 223 226 229 232 235 237 238 242 248 251 252 253 252 249 247 246 245 239 237 238 240 240 242 244 247 251 254 256 258 259 261 264 265 267 268 269 270 272 273 276 278 281 284 285 287 288 289 289 289 289 288 287 287 286 286 285 285 285 285 285 285 285 285 285
201 203 208 205 203 208 211 208 204 200 198 200 206 210 210 210 210 211 213 212 213 218 223 225 228 231 233 235 238 242 248 251 252 251 250 250 250 246 239 234 234 237 239 241 244 247 251 254 256 257 259 261 262 264 265 266 267 268 270 272 275 278 281 283 285 287 288 289 289 289 289 288 288 288 287 287 286 286 285 285 285 285 284 284 284 285
204 205 209 210 208 210 212 211 207 205 203 204 209 216 219 216 212 212 213 215 216 218 222 225 228 231 234 236 239 241 247 250 250 248 248 248 244 237 231 231 235 238 242 245 247 250 253 255 256 257 259 261 262 263 264 266 267 270 273 275 278 280 283 285 286 287 288 288 289 289 288 288 288 288 288 287 287 287 287 286 286 285 285 285 285 285
210 210 212 214 213 213 213 212 211 210 210 212 216 222 226 222 216 213 214 217 221 222 224 227 230 233 236 238 240 243 247 247 243 240 239 237 233 232 233 236 239 242 246 249 251 253 254 256 257 258 259 260 262 264 266 269 272 275 277 279 280 282 284 285 286 287 288 288 288 288 288 288 288 288 288 288 288 288 287 287 287 286 286 286 285 285
217 215 215 216 216 215 214 214 214 214 216 220 223 224 225 225 221 217 217 220 224 227 229 231 233 235 236 238 242 243 240 235 228 226 229 231 232 236 239 242 243 244 247 251 254 255 256 257 259 260 261 263 265 268 271 273 276 278 279 281 282 283 284 285 286 287 288 288 289 289 289 289 289 289 288 288 288 288 287 287 287 286 286 286 286 285
216 213 213 216 214 213 214 216 218 219 222 225 224 223 224 226 225 222 220 222 226 228 230 233 234 235 236 237 238 235 227 223 225 230 235 239 242 243 245 245 245 245 248 251 254 255 256 258 260 262 265 267 270 272 274 276 277 279 280 281 282 283 285 286 287 287 288 289 290 290 291 291 291 290 290 290 290 289 289 288 288 287 287 286 286 286
212 209 209 213 213 212 214 217 219 221 224 225 225 224 225 228 231 229 226 226 227 228 231 233 234 236 236 236 234 231 228 233 241 244 244 246 246 246 247 247 247 248 250 253 255 257 259 262 263 265 268 270 273 276 277 278 278 279 280 281 282 284 286 287 288 289 290 291 292 293 293 293 293 293 292 292 292 291 291 290 289 289 288 287 287 286
212 211 211 213 215 216 218 222 225 227 228 228 228 228 229 233 236 236 231 228 226 228 231 232 232 233 234 233 232 234 239 245 249 248 248 247 246 247 249 251 251 253 255 257 260 262 263 265 266 268 270 273 276 278 279 279 280 280 281 283 284 286 288 289 291 292 293 293 294 295 294 294 294 294 294 293 293 292 292 291 291 290 289 288 287 287
214 214 214 217 219 219 221 223 225 228 229 227 226 226 227 230 235 236 232 228 229 233 236 233 229 228 229 230 232 237 244 249 250 248 248 248 248 250 253 256 256 257 259 261 263 265 266 268 270 272 274 275 277 278 279 280 280 282 284 286 288 290 291 293 294 294 295 295 295 296 295 295 295 295 295 295 294 294 293 292 292 291 290 289 288 287
217 216 216 218 220 222 223 223 220 221 225 225 224 224 225 229 234 237 236 233 233 236 236 231 226 226 227 230 235 240 246 248 247 247 248 250 253 256 259 261 260 260 261 263 266 268 269 271 273 274 275 276 277 279 280 281 282 284 286 288 290 292 293 294 295 296 297 297 297 297 297 297 297 297 297 296 296 295 294 293 292 291 290 289 288 287
214 215 218 219 220 223 225 225 224 228 234 236 234 232 232 234 238 240 239 235 233 232 231 228 227 227 230 234 239 244 246 246 247 251 254 256 258 260 262 263 262 261 263 266 269 271 272 273 275 276 276 277 278 280 282 283 284 286 288 290 291 293 294 295 296 297 297 298 298 299 299 300 300 300 299 299 298 297 296 295 294 292 291 289 288 286
216 220 222 221 222 225 227 227 229 232 236 238 238 235 234 236 238 237 234 230 230 231 231 231 231 233 237 242 244 244 244 245 249 253 256 259 260 262 263 263 263 264 266 269 270 272 273 275 276 277 278 279 280 281 283 284 285 287 289 290 292 294 295 296 297 298 299 299 300 301 302 303 304 304 304 304 304 303 302 301 300 299 297 295 293 291
218 220 221 220 221 224 225 226 228 230 232 235 236 234 234 234 232 229 226 226 228 231 233 233 233 236 240 243 244 243 243 246 251 255 258 259 261 262 263 263 264 266 267 269 271 273 275 276 276 277 278 279 280 281 282 283 285 287 290 291 293 295 296 297 298 299 300 302 303 305 306 308 310 311 312 312 313 313 313 313 312 310 308 305 302 299
223 220 220 220 219 219 219 220 222 227 232 234 234 235 236 235 233 229 227 228 229 231 234 236 237 239 241 243 244 245 247 250 254 256 258 259 260 262 263 263 265 267 269 271 272 274 275 275 276 276 277 277 278 280 282 284 287 289 291 293 295 296 297 299 300 301 303 305 307 310 313 315 318 320 323 325 326 327 328 328 328 327 324 321 317 312
225 222 221 221 219 220 224 227 228 231 235 237 239 240 238 235 232 231 231 230 231 232 234 236 238 240 241 242 244 247 249 252 255 257 258 259 260 262 263 265 267 269 270 271 271 272 272 273 273 274 274 276 278 280 283 286 288 290 292 293 295 296 298 299 301 304 306 309 313 316 320 323 326 330 333 336 337 338 339 340 341 341 341 339 335 331
219 221 221 221 220 222 226 228 227 226 228 233 236 236 235 233 231 231 232 232 233 234 236 237 239 241 243 245 247 249 250 252 255 257 259 259 260 261 263 266 267 268 268 269 269 269 269 269 270 272 274 276 279 282 285 287 288 289 291 293 295 296 298 300 303 306 310 314 318 321 324 328 332 335 338 339 341 342 344 344 345 346 347 347 346 344
214 217 218 218 217 218 219 218 217 220 226 233 235 235 237 238 237 236 237 237 238 238 238 240 241 243 245 247 248 250 251 253 255 257 259 260 261 262 263 264 265 265 266 266 266 266 266 267 270 273 275 278 280 282 283 285 286 288 290 291 293 294 297 300 305 309 313 316 319 323 328 333 337 340 341 342 343 344 345 345 346 346 347 348 349 349
212 213 211 209 210 212 214 215 218 224 231 235 237 239 242 243 244 244 244 243 243 242 243 244 245 246 248 249 250 252 253 254 256 257 258 259 260 260 260 261 262 262 262 262 262 263 265 268 271 274 276 277 277 279 281 282 284 286 287 287 290 294 298 303 307 310 313 317 321 326 331 335 340 343 344 345 345 345 346 346 346 346 346 347 348 349
215 215 216 215 215 218 223 227 230 234 236 237 238 241 244 246 247 248 247 246 246 246 246 247 248 249 249 250 251 252 253 254 255 256 256 256 257 257 258 258 259 258 258 259 261 263 265 268 270 271 271 272 273 276 278 279 279 279 281 286 291 297 301 305 308 311 315 319 325 331 335 339 341 342 344 346 346 346 346 346 345 345 347 347 347 348
222 223 227 229 230 233 237 241 243 244 244 244 243 244 245 247 248 247 247 247 247 247 248 248 249 249 250 250 251 251 252 253 254 254 254 254 255 255 255 256 256 256 257 259 260 261 262 263 263 264 266 268 270 271 270 270 273 276 282 288 293 298 302 306 310 314 319 323 328 334 338 340 342 342 343 345 346 346 346 346 345 346 348 348 347 348
228 229 233 236 238 241 243 246 248 249 249 248 246 244 244 246 246 247 247 248 249 249 250 250 251 251 250 250 250 251 251 252 252 253 253 253 252 253 253 253 254 254 255 255 255 254 254 255 257 260 262 262 261 260 262 267 273 279 285 290 295 301 305 309 314 318 323 328 332 335 337 339 341 343 343 344 345 346 346 346 347 347 348 348 348 349
Height
5752 5755 5758 5762 5764 5766 5769 5773 5777 5780 5782 5784 5787 5790 5792 5794 5796 5796 5798 5801 5805 5808 5811 5813 5813 5812 5811 5809 5809 5811 5815 5820 5822 5823 5824 5824 5826 5829 5831 5834 5836 5838 5839 5840 5841 5841 5842 5843 5843 5843 5843 5843 5843 5844 5844 5844 5844 5845 5845 5845 5845 5845 5845 5844 5844 5844 5843 5842 5841 5840 5839 5838 5837 5836 5833 5832 5833 5833 5833 5834 5833 5832 5831 5830 5829 5828
5749 5752 5755 5759 5762 5764 5767 5771 5774 5777 5778 5780 5783 5786 5790 5793 5795 5795 5796 5800 5804 5807 5811 5813 5810 5807 5807 5806 5807 5810 5813 5816 5819 5821 5824 5824 5825 5827 5830 5832 5834 5835 5836 5837 5839 5839 5840 5841 5841 5841 5841 5842 5842 5842 5842 5842 5843 5843 5843 5843 5843 5843 5843 5843 5842 5842 5841 5841 5840 5839 5838 5837 5836 5835 5833 5831 5831 5830 5830 5831 5831 5830 5828 5828 5827 5826
5744 5748 5753 5757 5760 5762 5765 5769 5772 5774 5776 5778 5780 5783 5787 5791 5794 5794 5795 5798 5802 5806 5809 5809 5805 5805 5806 5805 5806 5808 5811 5814 5818 5821 5823 5824 5824 5826 5828 5830 5831 5832 5833 5835 5836 5837 5838 5838 5839 5839 5839 5840 5840 5840 5840 5841 5841 5841 5841 5841 5842 5842 5841 5841 5841 5840 5840 5839 5838 5837 5836 5836 5835 5834 5833 5831 5830 5829 5827 5826 5826 5826 5825 5824 5824 5823
5741 5746 5751 5754 5757 5760 5763 5766 5769 5772 5774 5776 5778 5781 5785 5789 5792 5793 5794 5797 5801 5804 5806 5804 5803 5803 5804 5803 5804 5807 5810 5813 5816 5819 5821 5822 5823 5824 5826 5827 5828 5829 5831 5832 5833 5835 5835 5836 5836 5837 5837 5838 5838 5838 5838 5839 5839 5839 5839 5839 5840 5840 5839 5839 5839 5839 5838 5838 5837 5836 5835 5834 5833 5832 5831 5830 5829 5828 5826 5824 5823 5823 5823 5822 5821 5820
5740 5746 5750 5752 5755 5758 5761 5764 5767 5769 5771 5774 5776 5779 5783 5787 5790 5793 5794 5796 5799 5801 5801 5800 5802 5802 5802 5803 5804 5806 5809 5812 5814 5816 5818 5820 5821 5822 5823 5824 5825 5827 5828 5830 5831 5832 5833 5833 5834 5835 5835 5835 5836 5836 5836 5837 5837 5837 5837 5838 5837 5837 5837 5837 5837 5837 5836 5836 5835 5834 5833 5832 5831 5830 5830 5829 5828 5827 5826 5824 5822 5820 5821 5820 5818 5817
5737 5742 5746 5749 5752 5755 5758 5761 5765 5767 5769 5772 5775 5777 5782 5786 5789 5793 5794 5794 5796 5796 5795 5797 5800 5800 5800 5801 5802 5804 5808 5810 5812 5814 5816 5817 5819 5820 5822 5822 5823 5825 5826 5828 5829 5829 5830 5831 5832 5833 5833 5834 5834 5834 5834 5835 5835 5835 5836 5835 5835 5835 5835 5834 5834 5834 5834 5833 5833 5832 5831 5830 5829 5828 5828 5827 5826 5825 5824 5823 5821 5819 5818 5817 5816 5815
5734 5738 5742 5745 5749 5752 5755 5758 5762 5764 5766 5769 5773 5776 5781 5784 5787 5791 5792 5791 5792 5792 5793 5796 5797 5797 5798 5799 5800 5803 5806 5808 5810 5812 5813 5815 5817 5818 5820 5821 5822 5823 5824 5826 5826 5827 5828 5828 5829 5830 5831 5832 5832 5832 5832 5832 5833 5833 5833 5833 5833 5832 5832 5832 5832 5832 5831 5831 5830 5830 5829 5828 5827 5826 5825 5825 5824 5823 5822 5821 5820 5818 5816 5814 5813 5814
5730 5734 5738 5742 5745 5748 5751 5755 5760 5762 5763 5767 5771 5775 5779 5783 5785 5787 5789 5789 5790 5790 5792 5794 5795 5795 5796 5797 5800 5802 5804 5806 5808 5810 5812 5814 5815 5816 5818 5819 5820 5821 5822 5823 5824 5824 5825 5826 5827 5828 5829 5829 5829 5830 5830 5830 5830 5831 5831 5831 5831 5830 5830 5830 5829 5829 5829 5829 5828 5828 5827 5826 5825 5824 5823 5822 5822 5821 5820 5819 5818 5817 5815 5812 5811 5811
5727 5731 5735 5739 5742 5745 5748 5753 5758 5760 5762 5766 5770 5773 5777 5781 5783 5784 5787 5789 5788 5788 5789 5790 5792 5794 5794 5795 5798 5800 5801 5803 5805 5808 5810 5811 5813 5814 5815 5816 5817 5818 5819 5821 5821 5822 5823 5824 5825 5826 5826 5826 5827 5827 5828 5828 5828 5828 5828 5828 5828 5828 5827 5827 5827 5827 5827 5826 5826 5825 5825 5824 5823 5822 5821 5820 5819 5818 5817 5816 5815 5814 5813 5811 5809 5808
5725 5729 5733 5736 5739 5743 5747 5752 5755 5758 5761 5764 5769 5773 5776 5779 5780 5781 5784 5787 5786 5786 5786 5786 5788 5792 5792 5792 5794 5796 5799 5801 5803 5805 5807 5809 5810 5811 5812 5813 5814 5815 5817 5818 5819 5819 5820 5821 5822 5823 5823 5824 5824 5824 5825 5826 5826 5826 5826 5826 5825 5825 5825 5825 5825 5824 5824 5824 5823 5823 5822 5821 5820 5819 5818 5817 5816 5815 5814 5813 5812 5811 5810 5809 5808 5806
5723 5727 5730 5733 5737 5741 5745 5749 5753 5756 5759 5762 5767 5771 5773 5776 5778 5778 5779 5782 5782 5782 5784 5785 5786 5789 5790 5789 5789 5793 5797 5799 5801 5803 5804 5806 5807 5808 5809 5810 5811 5813 5814 5815 5816 5817 5818 5819 5820 5820 5821 5821 5821 5821 5822 5822 5823 5823 5823 5823 5823 5822 5822 5822 5822 5821 5821 5821 5820 5820 5819 5818 5817 5816 5815 5814 5813 5812 5811 5810 5809 5809 5808 5807 5806 5804
5719 5723 5725 5729 5733 5738 5742 5746 5750 5753 5755 5758 5763 5766 5769 5772 5774 5774 5775 5777 5777 5777 5781 5784 5785 5786 5787 5786 5785 5788 5793 5797 5799 5800 5801 5802 5803 5805 5806 5807 5809 5810 5811 5813 5814 5814 5815 5816 5817 5817 5817 5817 5818 5819 5819 5819 5820 5820 5820 5820 5820 5820 5820 5819 5819 5819 5818 5818 5817 5817 5816 5815 5814 5813 5812 5811 5810 5809 5808 5807 5806 5805 5805 5804 5803 5802
5714 5717 5722 5726 5728 5733 5738 5741 5745 5749 5750 5754 5758 5761 5764 5768 5769 5770 5771 5772 5772 5773 5777 5782 5784 5785 5784 5783 5782 5784 5789 5792 5796 5798 5799 5799 5800 5802 5803 5805 5806 5808 5809 5810 5810 5811 5812 5813 5814 5814 5814 5814 5815 5816 5816 5817 5817 5817 5817 5817 5817 5817 5817 5817 5816 5816 5816 5815 5814 5814 5813 5812 5811 5810 5809 5808 5807 5806 5805 5804 5802 5801 5801 5800 5800 5799
5710 5713 5718 5721 5724 5729 5734 5737 5740 5743 5745 5749 5754 5756 5759 5762 5764 5766 5768 5769 5771 5772 5774 5779 5782 5782 5780 5779 5779 5780 5784 5788 5791 5794 5795 5796 5797 5798 5800 5802 5803 5804 5805 5806 5807 5808 5808 5809 5809 5810 5811 5812 5813 5813 5813 5814 5814 5815 5815 5815 5815 5814 5814 5814 5814 5813 5813 5812 5812 5811 5810 5809 5808 5807 5806 5805 5804 5803 5802 5801 5799 5798 5797 5796 5796 5795
5708 5710 5714 5717 5721 5726 5731 5733 5736 5741 5743 5746 5752 5754 5755 5758 5761 5764 5766 5768 5771 5772 5774 5777 5778 5777 5776 5775 5775 5776 5779 5783 5787 5790 5792 5793 5794 5795 5797 5799 5800 5801 5802 5802 5803 5804 5805 5806 5806 5807 5808 5809 5810 5810 5810 5811 5811 5812 5812 5812 5812 5811 5811 5811 5811 5810 5810 5809 5809 5808 5807 5806 5805 5804 5803 5802 5801 5800 5799 5797 5796 5795 5794 5793 5792 5791
5706 5709 5712 5716 5720 5724 5728 5731 5734 5739 5741 5744 5750 5751 5751 5755 5758 5762 5765 5767 5768 5770 5772 5773 5773 5772 5772 5771 5772 5774 5776 5779 5783 5786 5789 5790 5791 5793 5794 5795 5796 5797 5798 5799 5800 5801 5802 5803 5803 5804 5805 5806 5806 5807 5807 5808 5808 5808 5809 5808 5808 5808 5808 5808 5808 5807 5807 5806 5806 5805 5804 5803 5802 5801 5800 5799 5797 5796 5795 5794 5793 5791 5790 5789 5788 5787
5703 5708 5712 5715 5719 5721 5723 5727 5730 5735 5739 5741 5745 5747 5749 5754 5757 5760 5763 5765 5766 5767 5768 5768 5768 5768 5768 5768 5769 5771 5773 5776 5780 5783 5786 5788 5789 5790 5791 5792 5793 5794 5795 5795 5796 5798 5798 5799 5800 5800 5801 5802 5803 5803 5804 5805 5805 5805 5805 5805 5805 5805 5805 5805 5804 5804 5804 5803 5803 5802 5801 5800 5798 5797 5796 5795 5794 5793 5791 5790 5789 5788 5787 5786 5785 5784
5702 5707 5711 5713 5716 5718 5720 5725 5729 5733 5736 5737 5741 5746 5750 5753 5754 5756 5760 5761 5762 5764 5764 5764 5765 5765 5766 5766 5766 5768 5772 5775 5778 5781 5784 5786 5786 5787 5788 5789 5789 5790 5791 5792 5793 5794 5795 5796 5796 5797 5798 5799 5799 5800 5801 5801 5802 5802 5802 5802 5802 5802 5801 5801 5801 5801 5800 5800 5799 5798 5797 5796 5795 5794 5793 5792 5790 5789 5788 5787 5785 5785 5783 5783 5782 5781
5701 5705 5708 5710 5713 5716 5719 5723 5727 5729 5731 5733 5738 5745 5748 5748 5749 5751 5753 5756 5758 5759 5759 5761 5761 5762 5764 5764 5764 5767 5770 5773 5775 5778 5780 5782 5782 5783 5784 5785 5786 5787 5788 5789 5790 5791 5792 5793 5794 5794 5795 5795 5796 5797 5797 5798 5798 5798 5798 5798 5798 5798 5798 5798 5797 5797 5796 5796 5795 5794 5794 5793 5792 5791 5789 5788 5787 5785 5784 5783 5782 5781 5780 5779 5778 5777
5699 5703 5706 5708 5711 5714 5716 5718 5722 5725 5728 5730 5734 5739 5743 5744 5746 5748 5749 5751 5754 5755 5756 5757 5757 5759 5761 5761 5762 5766 5768 5769 5772 5774 5776 5778 5778 5779 5780 5781 5782 5783 5784 5785 5787 5788 5789 5790 5790 5791 5791 5792 5793 5794 5794 5795 5795 5795 5795 5795 5795 5794 5794 5794 5793 5792 5792 5792 5791 5790 5789 5789 5788 5787 5785 5784 5783 5782 5781 5780 5778 5777 5776 5776 5775 5774
5697 5701 5704 5706 5708 5710 5711 5712 5718 5723 5726 5727 5730 5734 5737 5739 5742 5745 5746 5748 5750 5751 5753 5753 5754 5757 5758 5759 5761 5763 5765 5767 5769 5770 5772 5774 5775 5775 5776 5777 5778 5779 5780 5781 5783 5784 5785 5786 5787 5787 5788 5788 5789 5790 5791 5791 5792 5792 5792 5791 5791 5790 5790 5789 5789 5788 5788 5787 5787 5786 5785 5784 5784 5782 5781 5780 5779 5778 5777 5776 5774 5774 5773 5772 5771 5770
5695 5699 5702 5704 5705 5706 5708 5711 5717 5722 5724 5725 5728 5730 5733 5736 5739 5742 5743 5745 5747 5748 5750 5751 5752 5754 5756 5757 5758 5760 5762 5763 5765 5767 5769 5770 5771 5772 5772 5773 5774 5775 5776 5778 5779 5780 5781 5782 5783 5784 5784 5785 5786 5787 5787 5788 5788 5788 5788 5787 5787 5786 5786 5785 5785 5784 5783 5783 5782 5782 5781 5780 5779 5777 5776 5775 5774 5774 5772 5771 5770 5769 5768 5767 5767 5766
5693 5697 5700 5702 5702 5705 5708 5711 5714 5719 5721 5723 5726 5729 5731 5732 5735 5737 5740 5742 5745 5746 5747 5749 5750 5751 5752 5753 5754 5756 5758 5760 5763 5764 5766 5767 5767 5768 5769 5770 5771 5772 5773 5774 5775 5776 5777 5778 5779 5780 5781 5782 5783 5784 5784 5784 5784 5784 5784 5783 5782 5782 5781 5781 5780 5780 5779 5779 5778 5777 5776 5775 5774 5773 5772 5771 5770 5769 5768 5767 5766 5765 5764 5763 5762 5761
5690 5694 5697 5700 5701 5704 5707 5709 5712 5716 5718 5720 5723 5726 5727 5729 5731 5735 5738 5741 5743 5744 5745 5746 5747 5747 5748 5749 5750 5753 5756 5758 5760 5761 5762 5762 5763 5764 5765 5766 5768 5769 5770 5771 5772 5772 5773 5774 5775 5776 5777 5778 5779 5780 5780 5780 5780 5780 5779 5779 5778 5778 5777 5777 5776 5775 5774 5774 5773 5772 5771 5770 5769 5768 5767 5766 5765 5764 5763 5762 5761 5760 5759 5759 5758 5757
5686 5690 5694 5696 5698 5701 5703 5705 5707 5710 5713 5715 5718 5720 5722 5726 5730 5733 5736 5739 5741 5741 5742 5743 5744 5744 5745 5746 5748 5751 5754 5755 5757 5757 5758 5759 5760 5761 5762 5763 5765 5766 5766 5767 5768 5769 5770 5771 5772 5773 5774 5775 5776 5776 5776 5776 5776 5776 5776 5775 5774 5774 5773 5773 5772 5771 5770 5770 5769 5767 5767 5766 5764 5763 5763 5762 5761 5760 5759 5758 5757 5756 5755 5754 5753 5752
5684 5688 5691 5693 5694 5696 5698 5700 5703 5707 5710 5712 5714 5717 5718 5722 5726 5728 5731 5735 5737 5737 5738 5740 5741 5740 5741 5743 5744 5747 5749 5751 5752 5753 5754 5755 5756 5757 5759 5760 5761 5762 5762 5764 5764 5766 5767 5767 5768 5769 5770 5771 5772 5772 5772 5772 5772 5772 5771 5771 5770 5770 5769 5768 5768 5767 5766 5765 5764 5763 5762 5761 5760 5759 5758 5757 5756 5755 5754 5753 5752 5751 5750 5749 5748 5747
5682 5686 5689 5691 5693 5694 5697 5701 5704 5706 5709 5711 5713 5714 5716 5720 5724 5726 5727 5730 5732 5733 5734 5736 5736 5736 5738 5740 5742 5744 5745 5746 5748 5750 5751 5752 5753 5754 5755 5756 5757 5758 5759 5760 5761 5762 5763 5763 5764 5766 5767 5767 5768 5768 5768 5768 5767 5767 5767 5767 5766 5765 5765 5764 5763 5763 5762 5761 5760 5759 5758 5757 5756 5755 5754 5753 5751 5750 5750 5749 5748 5747 5745 5745 5744 5743
5679 5682 5686 5690 5692 5694 5697 5700 5702 5703 5705 5708 5711 5713 5716 5719 5722 5724 5725 5726 5728 5730 5731 5732 5732 5733 5736 5738 5739 5740 5741 5742 5744 5745 5747 5748 5749 5750 5751 5752 5753 5755 5756 5757 5758 5758 5758 5759 5761 5762 5763 5763 5763 5763 5763 5763 5763 5763 5763 5762 5762 5761 5761 5760 5759 5758 5757 5756 5755 5754 5753 5753 5752 5751 5749 5748 5747 5746 5745 5744 5743 5742 5741 5740 5739 5737
5677 5680 5683 5687 5690 5692 5695 5697 5698 5699 5701 5705 5708 5711 5714 5717 5719 5721 5723 5723 5724 5726 5727 5729 5730 5731 5733 5735 5736 5737 5738 5739 5741 5742 5743 5745 5746 5747 5748 5749 5750 5752 5753 5754 5754 5754 5754 5756 5757 5758 5759 5759 5759 5759 5759 5759 5759 5759 5759 5758 5758 5757 5756 5755 5755 5754 5753 5752 5751 5750 5749 5748 5747 5746 5745 5744 5743 5741 5740 5739 5738 5737 5736 5735 5733 5732
5675 5678 5680 5684 5688 5690 5691 5693 5696 5697 5699 5701 5703 5706 5709 5712 5714 5716 5717 5719 5721 5722 5723 5725 5727 5728 5730 5731 5733 5734 5735 5736 5738 5739 5740 5742 5743 5744 5745 5747 5748 5748 5749 5750 5750 5749 5750 5752 5754 5754 5755 5756 5756 5756 5755 5755 5755 5755 5754 5754 5753 5752 5752 5751 5751 5750 5749 5747 5746 5745 5744 5744 5742 5741 5740 5739 5738 5736 5735 5734 5733 5732 5730 5729 5728 5727
5672 5675 5677 5681 5684 5684 5686 5689 5692 5695 5697 5698 5700 5701 5704 5706 5709 5711 5712 5714 5716 5718 5719 5721 5723 5724 5726 5728 5730 5731 5733 5734 5735 5736 5738 5739 5741 5742 5743 5744 5744 5745 5746 5746 5745 5745 5748 5750 5751 5751 5751 5751 5752 5752 5751 5751 5751 5751 5750 5750 5749 5748 5748 5747 5747 5746 5744 5743 5742 5741 5740 5739 5738 5736 5735 5734 5732 5731 5730 5729 5727 5726 5725 5724 5722 5721
5670 5672 5674 5677 5679 5680 5682 5687 5689 5692 5694 5696 5698 5699 5701 5703 5706 5708 5708 5709 5711 5714 5715 5717 5719 5722 5724 5725 5727 5729 5730 5731 5732 5733 5735 5736 5738 5739 5740 5740 5741 5741 5742 5742 5741 5743 5746 5747 5748 5748 5747 5747 5748 5748 5747 5747 5747 5747 5746 5746 5746 5745 5744 5743 5742 5741 5740 5739 5738 5737 5735 5734 5733 5732 5730 5728 5727 5726 5725 5724 5722 5721 5720 5718 5717 5716
5667 5669 5671 5673 5676 5678 5681 5684 5687 5689 5691 5693 5695 5697 5698 5700 5702 5704 5706 5707 5708 5711 5712 5715 5717 5720 5721 5723 5724 5726 5727 5728 5729 5730 5731 5733 5735 5736 5736 5737 5738 5739 5739 5738 5739 5741 5743 5743 5744 5744 5744 5743 5744 5744 5743 5743 5743 5743 5743 5742 5742 5741 5740 5739 5738 5737 5736 5734 5733 5732 5731 5729 5728 5727 5725 5723 5722 5721 5719 5718 5717 5715 5714 5713 5711 5710
5663 5666 5668 5671 5673 5676 5679 5682 5684 5686 5687 5689 5692 5694 5696 5697 5699 5702 5704 5704 5706 5708 5711 5713 5715 5716 5718 5720 5721 5723 5724 5725 5726 5727 5728 5730 5732 5733 5733 5735 5736 5736 5736 5735 5736 5739 5740 5739 5740 5741 5740 5740 5740 5740 5740 5740 5739 5739 5739 5738 5737 5736 5735 5735 5734 5733 5731 5730 5729 5727 5726 5724 5723 5722 5719 5718 5717 5716 5714 5713 5711 5710 5708 5707 5705 5704
5660 5664 5666 5668 5671 5674 5676 5679 5681 5681 5683 5686 5689 5691 5694 5695 5697 5699 5701 5702 5704 5707 5709 5711 5712 5714 5716 5717 5719 5720 5722 5722 5723 5724 5725 5727 5729 5730 5731 5732 5733 5733 5733 5732 5734 5735 5736 5736 5736 5737 5737 5736 5737 5737 5737 5736 5735 5735 5734 5733 5733 5732 5731 5730 5729 5728 5727 5725 5723 5722 5721 5720 5718 5716 5714 5713 5712 5710 5709 5707 5705 5704 5702 5700 5699 5697
5658 5661 5664 5666 5668 5670 5673 5675 5677 5679 5681 5684 5686 5689 5692 5692 5694 5696 5697 5699 5702 5704 5706 5708 5709 5711 5712 5714 5716 5718 5719 5720 5721 5722 5723 5724 5726 5727 5728 5729 5730 5730 5730 5730 5731 5732 5732 5732 5733 5733 5733 5733 5733 5733 5733 5732 5731 5731 5730 5729 5729 5728 5727 5726 5724 5724 5723 5720 5718 5717 5716 5715 5713 5711 5709 5708 5707 5705 5703 5701 5699 5697 5695 5694 5692 5690
5656 5659 5661 5663 5665 5667 5670 5672 5674 5676 5679 5681 5684 5687 5689 5690 5691 5692 5693 5695 5698 5701 5702 5704 5706 5707 5709 5711 5714 5715 5716 5717 5718 5720 5721 5722 5723 5724 5725 5726 5727 5727 5727 5728 5728 5729 5729 5729 5729 5729 5729 5729 5729 5729 5728 5728 5727 5726 5726 5725 5724 5723 5722 5721 5720 5719 5718 5716 5713 5712 5712 5710 5707 5705 5704 5703 5701 5699 5697 5695 5692 5690 5689 5687 5685 5683
5654 5656 5659 5660 5662 5665 5667 5670 5672 5674 5676 5679 5682 5684 5687 5688 5689 5690 5690 5692 5695 5698 5699 5701 5703 5704 5706 5709 5711 5712 5713 5714 5716 5717 5719 5720 5721 5721 5722 5723 5724 5724 5724 5725 5725 5725 5726 5726 5726 5726 5726 5726 5725 5725 5724 5723 5722 5722 5721 5721 5720 5719 5717 5716 5715 5714 5713 5711 5709 5707 5707 5705 5702 5700 5699 5697 5695 5692 5690 5688 5686 5683 5681 5679 5677 5675
5653 5655 5657 5659 5661 5663 5665 5668 5670 5672 5675 5677 5678 5681 5683 5685 5686 5687 5688 5690 5693 5695 5697 5698 5700 5702 5704 5706 5708 5709 5710 5712 5713 5715 5716 5717 5717 5718 5718 5720 5720 5721 5721 5722 5722 5722 5722 5722 5722 5722 5722 5721 5721 5720 5720 5719 5718 5718 5717 5716 5715 5714 5713 5712 5711 5709 5708 5706 5704 5702 5701 5700 5698 5695 5693 5691 5689 5686 5684 5681 5679 5676 5674 5671 5669 5667
5652 5654 5655 5657 5659 5661 5663 5666 5668 5669 5672 5674 5676 5678 5680 5681 5683 5684 5686 5688 5691 5693 5694 5696 5697 5699 5701 5703 5704 5706 5708 5709 5711 5712 5712 5713 5714 5715 5716 5716 5717 5717 5718 5718 5718 5718 5718 5718 5718 5718 5718 5717 5717 5716 5716 5715 5715 5714 5714 5713 5711 5710 5709 5708 5706 5705 5703 5702 5699 5697 5696 5695 5693 5690 5688 5685 5683 5681 5678 5675 5672 5669 5666 5664 5661 5659
5651 5652 5653 5655 5657 5659 5662 5664 5666 5668 5670 5672 5673 5675 5677 5678 5680 5683 5685 5687 5689 5690 5691 5693 5695 5697 5699 5701 5702 5704 5705 5706 5708 5708 5709 5710 5711 5711 5712 5713 5713 5714 5714 5714 5714 5715 5714 5714 5714 5714 5713 5713 5713 5712 5712 5711 5711 5710 5710 5709 5708 5706 5705 5704 5702 5700 5699 5697 5695 5692 5691 5689 5687 5685 5682 5679 5677 5674 5671 5668 5665 5662 5658 5656 5653 5650
5649 5650 5651 5653 5655 5657 5660 5663 5665 5666 5668 5670 5671 5673 5674 5676 5679 5681 5683 5685 5686 5688 5689 5691 5693 5695 5697 5699 5700 5701 5702 5703 5704 5705 5706 5707 5708 5708 5709 5709 5709 5710 5710 5710 5711 5711 5710 5710 5710 5710 5709 5709 5709 5709 5708 5708 5708 5707 5706 5705 5704 5703 5701 5700 5698 5696 5695 5693 5691 5688 5686 5684 5682 5679 5677 5674 5671 5668 5664 5661 5658 5654 5651 5648 5645 5642
5647 5648 5650 5652 5654 5656 5658 5660 5662 5664 5666 5668 5669 5670 5672 5674 5677 5679 5681 5682 5684 5686 5687 5689 5691 5692 5694 5696 5697 5698 5698 5699 5700 5701 5702 5704 5704 5704 5705 5706 5706 5706 5707 5707 5707 5707 5706 5706 5706 5706 5706 5706 5706 5706 5705 5705 5704 5703 5702 5701 5700 5699 5697 5696 5694 5693 5691 5689 5687 5684 5682 5680 5677 5675 5672 5669 5666 5663 5659 5656 5653 5649 5645 5641 5638 5635
5645 5647 5649 5651 5653 5655 5657 5659 5661 5663 5665 5666 5667 5668 5670 5672 5675 5676 5678 5680 5681 5683 5684 5686 5688 5689 5691 5692 5693 5694 5695 5695 5696 5697 5698 5700 5700 5700 5701 5702 5702 5702 5703 5703 5703 5703 5702 5702 5702 5702 5703 5703 5703 5702 5702 5701 5701 5699 5698 5697 5696 5695 5694 5692 5691 5689 5687 5685 5683 5681 5678 5676 5674 5671 5668 5665 5662 5659 5655 5652 5649 5645 5641 5637 5633 5629
5644 5645 5647 5649 5652 5654 5655 5658 5660 5661 5663 5664 5665 5667 5668 5670 5672 5673 5675 5677 5678 5680 5681 5683 5684 5686 5687 5688 5689 5690 5691 5692 5692 5693 5695 5696 5697 5697 5697 5698 5698 5699 5699 5699 5699 5699 5699 5699 5699 5700 5700 5700 5700 5699 5698 5698 5697 5696 5695 5694 5693 5692 5691 5689 5687 5686 5684 5682 5680 5678 5675 5673 5671 5668 5666 5662 5659 5656 5652 5649 5645 5641 5637 5633 5629 5625
5642 5644 5645 5647 5649 5651 5653 5656 5658 5660 5661 5662 5663 5664 5666 5667 5669 5670 5672 5674 5675 5677 5678 5680 5681 5682 5683 5684 5685 5687 5688 5688 5689 5690 5691 5692 5693 5693 5694 5694 5695 5695 5695 5695 5696 5696 5696 5696 5696 5697 5697 5697 5696 5696 5695 5694 5694 5693 5692 5691 5690 5689 5688 5686 5685 5683 5682 5680 5678 5676 5673 5670 5668 5665 5663 5660 5657 5653 5650 5646 5643 5639 5635 5630 5626 5622
5641 5642 5644 5646 5647 5649 5651 5654 5656 5658 5659 5660 5661 5662 5663 5665 5666 5668 5669 5671 5672 5674 5675 5676 5677 5679 5680 5681 5682 5683 5684 5685 5686 5687 5687 5688 5689 5690 5690 5691 5691 5691 5692 5692 5692 5693 5693 5693 5694 5694 5694 5693 5693 5692 5692 5691 5691 5690 5689 5688 5688 5687 5685 5684 5683 5681 5679 5677 5675 5673 5671 5668 5665 5662 5660 5657 5654 5651 5647 5644 5640 5637 5633 5628 5624 5620
5640 5642 5643 5645 5647 5648 5650 5652 5654 5656 5657 5658 5659 5660 5661 5662 5664 5665 5667 5668 5669 5670 5672 5672 5674 5675 5676 5677 5678 5679 5680 5682 5683 5683 5684 5685 5685 5686 5687 5687 5688 5688 5689 5689 5689 5690 5690 5690 5691 5691 5691 5690 5690 5690 5689 5689 5688 5688 5687 5686 5685 5684 5683 5682 5680 5678 5677 5675 5673 5671 5668 5666 5663 5660 5657 5655 5652 5649 5646 5642 5639 5635 5631 5627 5622 5618
5640 5641 5643 5644 5646 5647 5649 5650 5652 5654 5655 5656 5657 5658 5659 5660 5662 5663 5664 5664 5666 5667 5668 5669 5671 5672 5673 5674 5675 5676 5677 5678 5679 5680 5680 5681 5682 5682 5683 5684 5685 5685 5686 5686 5687 5687 5687 5687 5688 5688 5688 5688 5687 5687 5687 5686 5686 5686 5685 5684 5683 5682 5681 5679 5678 5676 5674 5672 5670 5668 5666 5663 5661 5658 5656 5653 5650 5647 5644 5641 5637 5633 5629 5625 5620 5615
5639 5640 5641 5643 5644 5646 5647 5648 5650 5651 5653 5654 5655 5656 5657 5658 5659 5660 5661 5662 5663 5664 5665 5666 5667 5668 5669 5670 5671 5672 5673 5674 5675 5676 5677 5678 5678 5679 5680 5681 5682 5682 5683 5683 5684 5684 5684 5684 5685 5685 5685 5685 5685 5685 5685 5685 5684 5684 5683 5682 5681 5680 5679 5677 5675 5674 5672 5670 5667 5665 5663 5661 5659 5656 5654 5651 5648 5645 5642 5638 5635 5631 5627 5623 5618 5613
5637 5638 5639 5641 5642 5643 5644 5646 5647 5648 5650 5651 5652 5652 5653 5654 5655 5656 5658 5659 5660 5661 5662 5663 5664 5665 5666 5667 5668 5669 5670 5671 5672 5673 5674 5674 5675 5676 5677 5678 5679 5679 5680 5681 5681 5681 5682 5682 5683 5683 5683 5683 5683 5683 5683 5683 5682 5682 5681 5680 5679 5677 5676 5675 5673 5671 5669 5667 5665 5663 5661 5659 5657 5654 5652 5649 5646 5643 5639 5636 5632 5628 5625 5621 5616 5612